Location: Charbonni�res
(45.9952°N, 2.9982°E)
Time: 16:55:06
(UTC+00:00)

Okean O Rocket - Pass Details

Date: 29 November 2020
Orbit: 623 x 644 km, 98.2° (Epoch: 17 January)

Event Time Altitude Azimuth Distance (km) Brightness Sun altitude
Rises 06:14:14 0° 14° (NNE) 2,957 5.0 -9.1°
Reaches altitude 10° 06:16:27 10° 16° (NNE) 2,045 4.2 -8.7°
Maximum altitude 06:20:55 80° 104° (ESE) 660 1.8 -8.0°
Drops below altitude 10° 06:25:22 10° 191° (S) 2,036 4.4 -7.3°
Sets 06:27:34 0° 192° (SSW) 2,942 5.2 -7.0°
